Penn Yan, NY
on Thursday, December 7, 2017

Thursday
       
Previous Day Next Day
Daily Summary
 ActualAverage (KITH)Record (KITH)
Temperature
Mean Temperature °F °C °F °C  
Max Temperature 36°F 2°C 40°F 4°C 64°F 17°C (1998)
Min Temperature 27°F -3°C 24°F -4°C -2°F -18°C (1969)
Degree Days
Heating Degree Days 34    
Moisture
Dew Point 21°F -6°C   
Average Humidity 67    
Maximum Humidity 81    
Minimum Humidity 44    
Precipitation
Precipitation 0.00 in / 0.00 cm in / cm in / cm ()
Wind
Wind Speed 9 mph / 14 km/h   
Max Wind Speed 20 mph / 32 km/h   
Max Gust Speed 25 mph / 40 km/h   
Visibility 7 miles / 12 kilometers   
Events Snow   
Averages and records for this station are not official NWS values.
Key: T is trace of precipitation, MM is missing value
Source: NWS Daily Summary
Seasonal Weather Averages
Time(EST)TemperatureDew PointHumidity Pressure Visibility Wind DirectionWind SpeedGust SpeedPrecipitationEvents Conditions
12:53 AM 36.0°F 2.2°C 23.0°F -5.0°C 59% 29.90 in / 1012.5 hPa 10.0 miles / 16.1 kilometers WSW 10.4 mph / 16.7 km/h - N/A   Overcast
1:53 AM 35.1°F 1.7°C 23.0°F -5.0°C 61% 29.92 in / 1013.1 hPa 9.0 miles / 14.5 kilometers WSW 19.6 mph / 31.5 km/h 25.3 mph / 40.7 km/h 0.00 in / 0.0 cm Snow Light Snow
2:53 AM 35.1°F 1.7°C 23.0°F -5.0°C 61% 29.94 in / 1013.6 hPa 10.0 miles / 16.1 kilometers WSW 8.1 mph / 13.0 km/h - 0.00 in / 0.0 cm   Overcast
3:53 AM 35.1°F 1.7°C 21.9°F -5.6°C 59% 29.92 in / 1013.2 hPa 10.0 miles / 16.1 kilometers WSW 6.9 mph / 11.1 km/h - N/A   Overcast
4:53 AM 33.1°F 0.6°C 21.9°F -5.6°C 64% 29.92 in / 1013.2 hPa 10.0 miles / 16.1 kilometers NNW 5.8 mph / 9.3 km/h - N/A   Overcast
5:53 AM 32.0°F 0.0°C 24.1°F -4.4°C 73% 29.94 in / 1013.7 hPa 10.0 miles / 16.1 kilometers Variable 3.5 mph / 5.6 km/h - N/A   Overcast
6:53 AM 32.0°F 0.0°C 21.9°F -5.6°C 66% 29.94 in / 1013.9 hPa 10.0 miles / 16.1 kilometers Calm Calm - N/A   Overcast
7:53 AM 33.1°F 0.6°C 21.0°F -6.1°C 61% 29.94 in / 1013.9 hPa 10.0 miles / 16.1 kilometers Variable 5.8 mph / 9.3 km/h - N/A   Overcast
8:53 AM 33.1°F 0.6°C 17.1°F -8.3°C 52% 29.95 in / 1014.2 hPa 10.0 miles / 16.1 kilometers SW 13.8 mph / 22.2 km/h 18.4 mph / 29.6 km/h N/A   Overcast
9:53 AM 30.9°F -0.6°C 19.9°F -6.7°C 64% 29.97 in / 1014.7 hPa 6.0 miles / 9.7 kilometers SW 9.2 mph / 14.8 km/h - 0.00 in / 0.0 cm Snow Light Snow
10:53 AM 32.0°F 0.0°C 19.9°F -6.7°C 61% 29.96 in / 1014.5 hPa 10.0 miles / 16.1 kilometers SW 11.5 mph / 18.5 km/h - 0.00 in / 0.0 cm   Overcast
11:53 AM 34.0°F 1.1°C 18.0°F -7.8°C 52% 29.94 in / 1013.8 hPa 10.0 miles / 16.1 kilometers WSW 12.7 mph / 20.4 km/h - N/A   Overcast
12:53 PM 35.1°F 1.7°C 17.1°F -8.3°C 48% 29.91 in / 1012.8 hPa 10.0 miles / 16.1 kilometers WSW 13.8 mph / 22.2 km/h 20.7 mph / 33.3 km/h N/A   Overcast
1:53 PM 36.0°F 2.2°C 18.0°F -7.8°C 48% 29.89 in / 1012.1 hPa 10.0 miles / 16.1 kilometers SW 17.3 mph / 27.8 km/h 21.9 mph / 35.2 km/h N/A   Overcast
2:53 PM 36.0°F 2.2°C 16.0°F -8.9°C 44% 29.87 in / 1011.5 hPa 10.0 miles / 16.1 kilometers SW 11.5 mph / 18.5 km/h - N/A   Overcast
3:53 PM 35.1°F 1.7°C 18.0°F -7.8°C 50% 29.90 in / 1012.3 hPa 10.0 miles / 16.1 kilometers WSW 16.1 mph / 25.9 km/h - N/A   Overcast
4:53 PM 30.0°F -1.1°C 23.0°F -5.0°C 75% 29.91 in / 1012.9 hPa 10.0 miles / 16.1 kilometers WNW 3.5 mph / 5.6 km/h - 0.00 in / 0.0 cm   Mostly Cloudy
5:53 PM 28.9°F -1.7°C 23.0°F -5.0°C 78% 29.93 in / 1013.5 hPa 10.0 miles / 16.1 kilometers NW 10.4 mph / 16.7 km/h - N/A   Overcast
6:53 PM 30.0°F -1.1°C 23.0°F -5.0°C 75% 29.95 in / 1014.1 hPa 10.0 miles / 16.1 kilometers WNW 4.6 mph / 7.4 km/h - N/A   Overcast
7:53 PM 30.0°F -1.1°C 23.0°F -5.0°C 75% 29.97 in / 1014.8 hPa 10.0 miles / 16.1 kilometers NW 5.8 mph / 9.3 km/h - N/A   Overcast
8:14 PM 28.9°F -1.7°C 23.0°F -5.0°C 78% 29.94 in / 1013.8 hPa 2.0 miles / 3.2 kilometers NW 4.6 mph / 7.4 km/h - 0.00 in / 0.0 cm Snow Light Snow
8:21 PM 28.9°F -1.7°C 23.0°F -5.0°C 78% 29.94 in / 1013.8 hPa 1.5 miles / 2.4 kilometers NW 4.6 mph / 7.4 km/h - 0.00 in / 0.0 cm Snow Light Snow
8:27 PM 28.9°F -1.7°C 23.0°F -5.0°C 78% 29.94 in / 1013.8 hPa 3.0 miles / 4.8 kilometers Calm Calm - 0.00 in / 0.0 cm Snow Light Snow
8:43 PM 28.0°F -2.2°C 23.0°F -5.0°C 81% 29.95 in / 1014.1 hPa 2.5 miles / 4.0 kilometers NW 5.8 mph / 9.3 km/h - 0.00 in / 0.0 cm Snow Light Snow
8:49 PM 28.4°F -2.0°C 23.0°F -5.0°C 80% 29.94 in / 1013.8 hPa 0.8 miles / 1.2 kilometers NW 6.9 mph / 11.1 km/h - 0.00 in / 0.0 cm Snow Light Snow
8:50 PM 28.0°F -2.2°C 23.0°F -5.0°C 81% 29.98 in / 1015.1 hPa 0.8 miles / 1.2 kilometers NW 8.1 mph / 13.0 km/h - 0.00 in / 0.0 cm Snow Light Snow
9:14 PM 27.0°F -2.8°C 21.9°F -5.6°C 81% 29.95 in / 1014.1 hPa 2.0 miles / 3.2 kilometers WNW 6.9 mph / 11.1 km/h - 0.00 in / 0.0 cm Snow Light Snow
9:28 PM 27.0°F -2.8°C 21.9°F -5.6°C 81% 29.96 in / 1014.4 hPa 1.5 miles / 2.4 kilometers West 5.8 mph / 9.3 km/h - 0.00 in / 0.0 cm Snow Light Snow
9:32 PM 28.0°F -2.2°C 21.9°F -5.6°C 78% 29.96 in / 1014.4 hPa 2.5 miles / 4.0 kilometers West 5.8 mph / 9.3 km/h - 0.00 in / 0.0 cm Snow Light Snow
9:39 PM 28.0°F -2.2°C 21.9°F -5.6°C 78% 29.96 in / 1014.4 hPa 7.0 miles / 11.3 kilometers West 4.6 mph / 7.4 km/h - 0.00 in / 0.0 cm Snow Light Snow
9:53 PM 28.9°F -1.7°C 21.9°F -5.6°C 75% 29.99 in / 1015.5 hPa 10.0 miles / 16.1 kilometers West 9.2 mph / 14.8 km/h - 0.00 in / 0.0 cm   Overcast
10:53 PM 28.9°F -1.7°C 18.0°F -7.8°C 64% 30.01 in / 1016.0 hPa 10.0 miles / 16.1 kilometers West 9.2 mph / 14.8 km/h - N/A   Overcast
11:53 PM 28.0°F -2.2°C 18.0°F -7.8°C 66% 30.00 in / 1015.9 hPa 6.0 miles / 9.7 kilometers West 10.4 mph / 16.7 km/h - 0.00 in / 0.0 cm Snow Light Snow